Regional Weather Roundup
Issued by NWS

Home | Current Version | Previous Version | Graphics & Text | Print | Product List | Glossary On
Versions: 1 2 3 4 5 6 7 8 9 10 11 12 13 14 15 16 17 18 19 20 21 22 23 24 25 26 27 28 29 30 31 32 33 34 35 36 37 38 39 40 41 42 43 44 45 46 47 48 49 50
402
ASUS44 KLIX 221205
RWRLA
LOUISIANA WEATHER ROUNDUP
NATIONAL WEATHER SERVICE NEW ORLEANS LA
700 AM CDT TUE JUL 22 2014

NOTE: "FAIR" INDICATES FEW OR NO CLOUDS BELOW 12,000 FEET WITH NO
      SIGNIFICANT WEATHER AND/OR OBSTRUCTIONS TO VISIBILITY.
      SKY/WX - SKY CONDITION AND SIGNIFICANT WEATHER.
      TMP - AIR TEMPERATURE.    DP   - DEWPOINT TEMPERATURE.
      RH  - RELATIVE HUMIDITY.  PRES - PRESSURE.
      HX  - HEAT INDEX.         WCI  - WIND CHILL INDEX.

*  THESE STATIONS ARE NOT NWS OR FAA STATIONS AND ARE NOT UNDER
   NWS QUALITY CONTROL.

LAZ040-048-061>063-065-066-069-221300-
SOUTHEAST LOUISIANA

CITY           SKY/WX    TMP DP  RH WIND       PRES   REMARKS
N.O. AUDUBON     N/A     79  76  90 MISG        N/A
6HR MIN TEMP:  78; 6HR MAX TEMP:  82;

N.O. INTL ARPT MOCLDY    77  73  87 CALM      30.02R
6HR MIN TEMP:  76; 6HR MAX TEMP:  80;

N.O. LAKEFRONT PTCLDY    79  74  84 S5        30.02S
6HR MIN TEMP:  78; 6HR MAX TEMP:  82;

N.O. DOWNTOWN* FAIR      81  72  74 CALM      30.02R
6HR MIN TEMP:  81; 6HR MAX TEMP:  84;

SLIDELL        PTCLDY    72  70  93 CALM      30.01S
6HR MIN TEMP:  72; 6HR MAX TEMP:  75;

BATON ROUGE    CLEAR     71  69  93 CALM      30.03R
6HR MIN TEMP:  71; 6HR MAX TEMP:  74;

BOOTHVILLE     CLEAR     78  77  96 CALM      30.02R FOG
6HR MIN TEMP:  77; 6HR MAX TEMP:  80;

BELLE CHASSE   MOCLDY    76  72  87 CALM      30.01S FOG
6HR MIN TEMP:  75; 6HR MAX TEMP:  79;

BOGALUSA*      FAIR      72  68  89 CALM      30.04R
6HR MIN TEMP:  71; 6HR MAX TEMP:  74;

GALLIANO*      NOT AVBL
NEW ROADS*     FAIR      70  69  98 CALM      30.03R FOG
6HR MIN TEMP:  69; 6HR MAX TEMP:  73; 6HR PCP:  0.01;

GONZALES*      PTSUNNY   73  73 100 CALM      30.02R
6HR MIN TEMP:  72; 6HR MAX TEMP:  76;

HAMMOND*       CLEAR     70  68  94 CALM      30.04S
HOUMA*         CLEAR     75  72  88 CALM      30.03R FOG
PORT FOURCHON* SUNNY     81  77  89 CALM      30.04R

$$

LAZ041-044-053-054-221300-
SOUTHWEST LOUISIANA

CITY           SKY/WX    TMP DP  RH WIND       PRES   REMARKS
LAKE CHARLES   CLEAR     76  74  93 CALM      30.02R FOG
6HR MIN TEMP:  76; 6HR MAX TEMP:  79;

LAFAYETTE      CLEAR     74  72  93 NE3       30.02S
6HR MIN TEMP:  74; 6HR MAX TEMP:  78;

PATTERSON      MOCLDY    75  75 100 CALM      30.06R
SALT POINT       N/A     80  77  90 E3        30.01R
6HR MIN TEMP:  80; 6HR MAX TEMP:  83;

NEW IBERIA     CLEAR     77  72  84 NE6       30.03R
6HR MIN TEMP:  75; 6HR MAX TEMP:  79;

CHENAULT AIRPK NOT AVBL

$$

LAZ027-028-221300-
CENTRAL LOUISIANA

CITY           SKY/WX    TMP DP  RH WIND       PRES   REMARKS
FORT POLK      PTCLDY    73  69  87 NE3       30.05R
6HR MIN TEMP:  73; 6HR MAX TEMP:  77;

ALEXANDRIA INT CLEAR     69  68  96 CALM      30.04R FOG
6HR MIN TEMP:  68; 6HR MAX TEMP:  72;

ALEXANDRIA     CLEAR     68  65  90 CALM      30.05R
6HR MIN TEMP:  67; 6HR MAX TEMP:  71;


$$

LAZ001-002-221300-
NORTHWEST LOUISIANA

CITY           SKY/WX    TMP DP  RH WIND       PRES   REMARKS
SHREVEPORT     PTCLDY    69  67  93 CALM      30.07R
6HR MIN TEMP:  67; 6HR MAX TEMP:  73;

BARKSDALE AFB  CLEAR     68  68 100 CALM      30.07R
6HR MIN TEMP:  67; 6HR MAX TEMP:  71;

DTN SHREVEPORT CLEAR     69  67  93 CALM      30.07R
6HR MIN TEMP:  67; 6HR MAX TEMP:  73;


$$

LAZ014-016-221300-
NORTHEAST LOUISIANA

CITY           SKY/WX    TMP DP  RH WIND       PRES   REMARKS
MONROE         CLEAR     70  68  93 CALM      30.07R
6HR MIN TEMP:  69; 6HR MAX TEMP:  71;

TALLULAH       CLEAR     72  69  90 N6        30.05R
6HR MIN TEMP:  68; 6HR MAX TEMP:  72;


$$




USA.gov is the U.S. government's official web portal to all federal, state and local government web resources and services.